Dewpoint
31 29 25 23 24 21 17 19 17 25 28 30 30 30 25 24 23 22 21 19 17 15 12 11 13 15 15 16 18 19 20 21 26 31 33 30 24 22 19 17 17 19 22 24
29 27 26 24 23 22 20 18 18 27 26 27 28 28 26 24 23 23 21 20 18 13 11 10 11 12 13 13 14 15 16 16 20 27 28 28 23 19 17 14 12 14 16 19
25 25 26 25 23 23 23 20 20 23 25 25 25 26 24 24 24 23 23 22 19 15 12 9 9 10 10 9 10 10 12 13 15 20 24 23 20 17 14 12 9 8 10 14
25 21 24 27 25 25 20 21 21 25 24 21 25 17 25 24 23 23 22 22 21 19 14 10 9 8 6 6 7 7 9 9 9 13 15 15 15 13 10 8 6 6 5 8
21 19 24 28 27 24 20 22 24 25 24 20 22 22 17 24 22 22 22 21 21 18 12 8 6 5 3 4 4 4 5 5 5 7 11 12 12 8 7 6 4 3 3 4
22 26 23 26 27 24 25 25 25 25 24 23 23 20 15 21 22 22 22 21 19 15 10 5 3 4 2 2 2 3 2 2 3 2 2 2 3 3 2 3 3 2 2 2
25 24 26 25 24 26 25 23 21 22 22 19 20 19 19 19 21 21 21 20 18 12 7 3 0 0 -0 -1 -0 0 1 0 -0 1 1 -0 -0 -0 1 3 1 2 1 -2
22 21 25 28 24 26 25 23 19 15 15 15 18 18 20 18 15 17 22 19 16 10 4 2 -0 -3 -3 -2 -2 -1 0 -1 -1 -2 -2 -2 -2 -1 -2 -3 -3 -3 -3 -3
21 20 23 25 26 25 25 23 22 16 17 17 18 20 18 15 15 18 19 16 13 8 3 1 -2 -4 -4 -3 -2 -2 -1 -0 -1 -1 -2 -2 -2 -3 -4 -5 -5 -5 -5 -7
32 26 24 25 27 27 23 24 22 23 21 19 12 13 18 16 15 16 16 14 11 7 2 -1 -2 -4 -3 -2 -1 -0 -0 0 1 1 0 0 0 1 -0 -1 -2 -3 -3 -4
35 31 30 27 25 24 25 25 24 25 23 15 12 12 13 18 17 15 15 12 9 4 0 -2 -3 -3 -3 -3 -2 -2 -1 -1 -1 2 3 4 3 2 2 3 3 2 1 1
36 32 28 28 27 25 26 24 24 24 21 23 20 18 13 13 17 15 13 10 7 2 -1 -4 -5 -4 -4 -4 -3 -2 -1 1 1 1 2 3 3 3 4 3 3 2 2 2
31 29 26 26 29 29 27 28 26 26 25 23 20 21 14 13 14 13 10 8 4 1 -3 -4 -5 -5 -3 -1 1 3 4 4 4 5 5 5 5 5 5 5 4 3 3 3
33 28 27 24 24 27 27 30 28 27 27 25 24 24 15 13 12 11 10 8 6 3 1 2 2 4 6 6 7 7 7 7 6 6 6 6 5 5 5 5 4 4 5 6
30 26 28 27 28 28 29 29 29 27 28 26 26 26 24 15 14 12 11 9 6 5 5 5 6 7 7 7 7 7 7 7 6 5 5 6 6 6 5 5 5 5 5 5
30 25 25 24 26 25 25 28 31 29 29 30 30 28 21 18 15 12 11 9 7 6 6 6 6 6 6 6 7 7 7 6 5 5 4 4 4 5 5 5 5 5 6 7
27 25 23 20 22 22 20 22 27 31 32 31 29 31 17 14 13 12 11 10 8 7 7 7 6 6 7 7 7 7 6 6 5 4 4 4 4 4 4 5 5 5 5 6
23 24 24 19 20 14 16 13 16 24 22 21 22 19 17 15 15 13 12 10 9 8 7 6 8 9 8 7 7 6 5 4 4 3 3 3 3 3 3 3 3 3 3 3
27 25 20 18 16 17 16 13 17 19 20 17 16 16 14 13 11 11 15 14 11 9 10 11 11 9 6 5 5 4 3 4 3 2 2 2 2 1 0 0 0 0 0 0
25 26 22 19 15 10 12 10 11 13 18 14 14 10 9 12 8 6 14 13 12 12 10 8 7 5 4 3 3 2 2 2 1 1 -0 -3 -4 -3 -3 -3 -3 -4 -3 -4
17 19 17 17 17 17 9 9 12 16 12 12 12 11 12 12 12 8 9 9 9 9 8 6 3 3 3 3 1 -1 -3 -4 -6 -8 -8 -8 -8 -8 -8 -8 -8 -8 -8 -8
15 14 14 17 17 13 4 9 11 8 11 13 13 11 6 5 6 6 6 6 6 6 5 5 1 -2 -2 -2 -3 -5 -7 -8 -7 -6 -5 -5 -5 -5 -6 -5 -5 -5 -5 -5
13 10 14 10 8 3 2 2 4 6 10 9 7 8 7 6 6 6 6 6 5 1 -1 -3 -5 -5 -5 -5 -5 -6 -5 -4 -4 -4 -3 -3 -4 -4 -4 -3 -2 -2 -2 -1
7 6 8 5 3 1 2 3 5 10 8 8 9 9 8 6 6 5 2 -2 -3 -5 -5 -5 -4 -4 -5 -5 -4 -4 -4 -4 -4 -5 -5 -5 -5 -3 -3 -4 -4 -3 -2 -1
7 6 4 2 1 1 1 4 4 5 7 8 9 8 6 1 -3 -3 -4 -6 -6 -4 -2 -3 -4 -4 -4 -4 -6 -6 -6 -6 -6 -6 -5 -4 -4 -3 -2 -2 -1 0 2 2
4 6 7 9 4 6 2 4 3 1 0 -0 -2 -3 -3 -3 -4 -5 -3 -1 -2 -3 -4 -4 -5 -6 -6 -6 -6 -6 -6 -5 -4 -3 -3 -1 -1 -1 -1 -1 1 1 2 3
Wind_Speed
21 23 26 25 27 22 17 18 18 11 7 15 17 15 15 15 13 14 13 12 10 8 6 5 5 6 6 8 10 12 11 12 10 7 5 7 11 11 13 14 18 18 18 17
19 28 24 21 21 22 15 18 18 9 7 12 14 18 15 20 21 19 17 15 13 11 9 7 6 7 7 9 10 11 12 12 10 9 6 6 7 10 11 12 16 18 19 18
22 18 24 23 20 21 19 19 17 10 11 8 6 15 17 18 17 19 17 15 15 15 14 10 8 7 7 9 11 12 12 12 11 8 6 8 7 8 10 12 13 17 18 17
20 20 19 18 23 22 23 20 16 15 17 14 20 17 27 24 25 23 21 21 19 17 14 12 10 9 9 10 11 11 12 11 11 10 10 13 11 7 8 10 11 13 17 16
14 20 20 27 28 27 24 15 14 17 20 15 12 9 10 23 21 28 29 27 23 20 17 15 11 10 11 10 11 10 12 13 13 13 11 11 12 10 8 9 10 12 13 16
21 4 20 23 23 23 10 10 8 9 16 25 22 18 21 19 31 31 30 30 27 23 19 16 13 12 12 11 11 11 12 13 13 13 14 14 14 11 10 10 10 10 10 12
19 21 10 16 22 21 21 18 10 12 14 22 18 22 20 12 10 4 33 31 27 23 20 18 16 14 12 12 12 11 12 13 13 13 13 13 13 13 12 11 10 11 11 12
23 17 24 18 24 19 31 29 16 16 21 22 22 14 15 8 4 1 20 27 25 22 19 18 16 15 13 12 12 12 12 13 12 12 13 12 12 11 11 12 11 11 11 11
13 21 18 22 22 23 24 38 28 27 19 12 16 9 3 6 6 9 23 27 26 24 21 18 16 15 14 13 12 12 12 12 11 11 12 12 12 12 11 11 11 10 11 9
5 7 12 20 23 22 27 19 26 20 10 16 18 23 15 14 18 20 25 27 25 23 21 19 16 15 13 13 12 11 11 11 10 10 10 11 11 11 11 11 11 11 10 10
10 15 7 10 25 29 23 21 20 21 22 22 24 21 6 4 25 27 25 25 26 24 22 19 17 15 14 12 12 11 11 10 10 10 9 9 9 9 9 9 9 9 9 10
16 6 21 21 10 10 13 28 29 17 27 29 27 20 2 2 16 25 26 25 24 23 22 20 18 16 15 13 12 11 10 10 8 8 8 8 7 7 8 8 7 7 7 7
3 7 6 5 5 6 18 24 22 32 17 26 24 14 1 6 18 21 27 27 25 25 23 20 18 16 15 13 11 10 9 8 7 7 6 6 6 5 5 5 5 6 6 6
1 5 8 8 2 3 19 26 25 23 24 27 32 15 8 15 21 24 25 26 25 23 22 20 17 15 13 11 10 9 8 6 5 5 5 4 4 3 3 3 3 4 4 4
3 9 14 19 11 6 8 26 31 26 32 25 19 24 17 28 28 26 25 25 25 23 21 19 17 15 13 11 10 8 7 6 4 3 3 2 1 1 2 2 3 3 4 4
3 5 6 10 7 7 11 14 18 32 31 29 13 9 1 19 22 26 27 28 26 22 20 18 17 15 13 11 9 8 7 5 3 2 0 0 2 2 3 4 4 5 6 6
3 3 2 7 2 3 10 22 20 15 25 21 32 17 20 24 24 26 27 25 24 22 20 19 17 14 12 11 10 8 7 5 3 2 2 3 3 4 5 5 6 7 7 7
12 7 4 9 1 10 3 3 3 10 1 5 9 17 20 23 20 20 19 23 23 21 20 18 16 14 12 10 8 8 5 3 2 3 3 4 4 5 6 6 7 8 8 9
19 13 7 7 11 12 5 1 1 6 5 5 13 19 24 28 28 15 17 21 24 22 19 16 13 12 10 9 7 5 3 2 2 4 4 5 5 6 6 7 8 9 10 11
9 12 11 6 8 12 3 3 3 2 9 6 14 26 33 25 15 12 22 24 23 20 17 16 13 11 9 7 6 4 2 1 3 4 5 5 5 6 8 9 10 10 10 13
9 10 23 20 11 2 3 4 6 8 2 6 17 22 26 7 8 23 23 22 20 19 17 14 11 10 8 7 6 3 0 2 3 3 4 5 6 8 9 10 11 12 12 13
10 10 11 12 11 16 7 2 4 2 5 11 15 16 22 26 28 25 24 22 21 19 15 11 11 10 8 6 4 2 2 1 3 4 6 7 8 8 9 11 12 13 13 14
6 2 2 1 0 3 5 3 3 5 10 11 19 21 28 28 26 25 23 21 18 16 14 10 10 9 7 5 3 1 1 3 5 6 7 8 8 9 9 10 12 12 12 12
1 1 1 3 3 4 6 3 3 7 12 17 22 23 25 28 23 23 21 19 16 14 12 10 9 8 8 5 3 2 3 4 5 6 7 8 9 10 10 9 10 10 11 11
1 3 5 2 3 8 7 8 12 14 16 21 21 21 24 26 21 22 20 18 16 14 11 9 8 7 7 5 4 4 4 4 5 5 6 7 7 8 10 9 10 10 10 13
0 2 3 2 7 8 11 10 13 17 18 20 25 22 19 21 22 20 18 16 14 13 10 9 8 8 7 6 5 5 6 6 6 7 7 8 8 9 9 10 11 13 16 18
Wind_Direction
191 198 208 204 212 226 227 215 224 148 164 200 209 205 196 187 198 195 189 186 174 161 139 106 85 70 65 55 52 44 37 22 30 31 30 49 49 45 46 39 35 35 32 27
187 214 211 218 218 232 243 231 217 122 178 220 207 224 195 194 204 199 195 191 182 163 159 142 122 98 80 67 59 55 46 35 33 40 51 67 75 62 58 47 41 36 36 32
205 217 221 218 216 222 226 228 201 204 173 229 213 236 206 209 205 200 202 196 187 182 169 157 142 119 95 74 59 54 50 44 36 40 78 100 89 67 50 41 40 35 38 35
230 220 214 215 222 212 223 225 229 169 173 225 193 251 206 199 205 204 202 200 192 184 171 158 150 123 101 81 72 62 59 52 44 46 67 74 74 79 56 52 48 46 41 38
215 216 203 212 214 212 231 214 216 185 212 229 199 244 234 185 206 210 208 200 193 182 175 163 146 126 108 95 84 76 72 63 58 59 67 80 83 79 71 61 57 51 48 41
240 233 219 220 222 221 158 133 145 206 232 245 228 217 245 187 212 212 203 195 187 175 168 156 142 134 117 105 95 88 79 73 67 69 71 75 83 81 76 67 63 56 53 45
231 224 224 225 215 214 178 176 195 216 215 238 223 231 230 190 198 206 191 184 176 168 165 158 154 143 130 119 109 98 88 79 76 73 71 73 75 75 71 62 55 57 49 41
218 223 206 203 210 193 197 196 203 218 231 242 216 238 228 99 68 339 169 166 164 166 167 163 153 142 132 124 115 109 100 91 82 78 74 68 69 68 65 61 63 54 54 43
222 233 196 200 198 190 208 216 219 254 265 265 209 218 162 147 152 146 151 157 165 168 164 158 148 141 134 126 115 110 103 95 86 82 78 70 66 65 63 58 56 53 46 37
252 266 207 190 207 211 224 211 213 230 226 232 237 233 216 205 191 169 166 167 166 162 161 156 149 142 132 124 116 108 102 97 90 82 77 72 65 59 57 56 51 47 38 32
198 216 188 176 204 203 206 214 213 227 231 242 247 239 19 122 185 177 171 168 164 163 160 157 150 141 133 126 121 113 107 101 91 84 79 75 67 61 59 57 48 39 38 30
201 232 221 208 215 269 226 211 207 211 218 233 256 258 50 41 162 164 164 162 161 161 159 155 150 144 139 132 127 118 111 100 90 85 82 76 71 63 59 54 46 40 39 34
32 226 209 196 223 226 214 224 239 225 242 234 226 232 78 151 144 159 160 160 161 160 156 151 149 146 139 131 124 117 107 102 91 86 86 77 68 62 56 50 40 36 28 24
214 243 276 280 294 299 209 208 216 224 224 230 237 240 185 166 161 161 161 159 158 156 154 151 145 139 133 129 125 119 108 98 93 83 80 79 64 52 38 21 15 12 360 357
225 261 236 254 259 292 288 219 211 210 220 215 233 234 200 183 170 163 154 152 153 154 154 153 149 144 139 135 130 125 119 115 95 84 73 71 35 359 328 310 305 307 312 312
208 270 340 281 233 230 259 269 246 220 220 233 240 246 36 141 143 155 158 155 155 157 157 151 143 141 141 141 141 139 133 128 130 116 127 274 270 269 272 273 274 278 280 276
250 272 277 277 9 247 264 241 222 232 226 235 228 224 146 147 158 161 156 157 153 153 150 147 142 140 136 138 140 139 138 137 150 188 230 238 248 257 260 262 265 268 266 270
244 230 237 274 194 259 283 3 321 244 98 105 102 133 147 143 136 139 150 146 142 141 140 135 131 128 126 122 119 122 134 148 179 243 253 248 251 263 266 265 270 277 281 282
226 230 234 232 233 299 258 126 193 195 203 131 128 120 117 115 105 111 141 141 139 140 131 124 119 122 124 124 125 138 160 160 227 266 271 264 255 270 282 287 290 291 290 289
228 231 223 191 230 239 35 73 5 283 252 159 140 139 139 141 148 152 146 131 125 120 119 122 121 122 127 135 138 145 169 204 268 261 265 269 276 282 287 289 291 291 286 285
192 201 220 228 240 259 24 353 322 178 224 127 149 150 153 146 104 128 113 107 110 116 120 124 129 129 129 135 148 149 203 271 292 303 299 293 291 292 294 295 294 295 293 291
210 199 207 220 224 246 5 280 205 68 98 123 128 119 105 114 111 113 112 116 118 121 121 125 127 128 134 134 136 168 235 333 322 311 311 312 312 309 308 303 300 299 296 293
237 321 339 21 323 34 16 12 328 310 118 108 111 119 122 116 114 116 116 116 118 124 128 127 118 111 116 134 164 187 40 336 326 321 316 317 317 311 306 301 301 300 301 302
152 254 38 171 57 44 44 63 10 62 104 111 116 119 117 114 115 113 115 118 120 120 115 114 118 123 124 122 123 61 4 346 332 326 330 329 324 317 324 320 311 309 308 308
55 186 139 101 109 110 56 84 91 92 99 102 100 108 114 116 115 117 115 115 117 118 120 121 117 111 99 80 66 48 25 9 348 340 332 327 326 325 321 318 313 304 297 290
145 127 217 127 157 82 125 113 116 107 104 105 109 106 102 108 115 114 112 116 118 119 122 112 100 91 76 66 51 33 20 14 360 350 351 341 333 325 321 316 308 305 308 307